Spokane, WA

6:47 PM PST on November 22, 2017 (GMT -0800)
Spokane International

Weather History for KGEG - April, 2013

Change the Weather History Date:

Wednesday, April 3, 2013

  Actual Average Record
Temperature  
Mean Temperature 52 °F 45 °F  
Max Temperature 62 °F 54 °F 76 °F (1944)
Min Temperature 41 °F 35 °F 22 °F (1935)
Degree Days  
Heating Degree Days 13 20  
Month to date heating degree days 34 62  
Since 1 July heating degree days 5301 5658  
Cooling Degree Days 0 0  
Month to date cooling degree days 0 0  
Year to date cooling degree days 0 0  
Growing Degree Days 2 (Base 50)    
Moisture  
Dew Point 37 °F    
Average Humidity 63    
Maximum Humidity 89    
Minimum Humidity 36    
Precipitation  
Precipitation 0.00 in 0.04 in 0.52 in (2009)
Month to date precipitation 0.00 0.14  
Year to date precipitation 3.19 4.87  
Snow  
Snow 0.00 in 0.10 in 3.30 in (1926)
Month to date snowfall 0.0 0.2  
Since 1 July snowfall 43.5 44.0  
Snow Depth 0.00 in    
Sea Level Pressure  
Sea Level Pressure 30.06 in    
Wind  
Wind Speed 7 mph (SSW)    
Max Wind Speed 16 mph    
Max Gust Speed 20 mph    
Visibility 10 miles    
Events      
T = Trace of Precipitation, MM = Missing Value Source: NWS Daily Summary

Daily Weather History Graph

Daily Weather History Graph

Search for Another Location

Airport or City:

Trip Planner

Search our weather history database for the weather conditions in past years. The results will help you decide how hot, cold, wet, or windy it might be!

Date:

Astronomy

Apr. 03, 2013 Rise Set
Actual Time 6:24 AM PDT 7:23 PM PDT
Civil Twilight 5:52 AM PDT 7:54 PM PDT
Nautical Twilight 5:15 AM PDT 8:32 PM PDT
Astronomical Twilight 4:35 AM PDT 9:12 PM PDT
Moon 2:35 AM PDT (4/3) 12:14 PM PDT (4/3)
Length of Visible Light 14h 02m
Length of Day
12h 59m
Last Quarter, 43% of the Moon is Illuminated
Apr 3
Last Quarter
Apr 10
New
Apr 18
First Quarter
Apr 25
Full
May 2
Last Quarter

Hourly Weather History & Observations

Time (PDT) Temp. Windchill Dew Point Humidity Pressure Visibility Wind Dir Wind Speed Gust Speed Precip Events Conditions
12:53 AM 48.9 °F - 39.0 °F 69% 30.02 in 10.0 mi South 10.4 mph - N/A   Partly Cloudy
1:53 AM 46.9 °F - 39.9 °F 77% 30.04 in 10.0 mi South 11.5 mph - N/A   Partly Cloudy
2:53 AM 46.0 °F 41.0 °F 39.9 °F 79% 30.04 in 10.0 mi South 10.4 mph - N/A   Partly Cloudy
3:53 AM 45.0 °F 40.1 °F 39.0 °F 80% 30.05 in 10.0 mi South 9.2 mph - N/A   Partly Cloudy
4:53 AM 43.0 °F 37.7 °F 39.0 °F 86% 30.06 in 10.0 mi SSE 9.2 mph - N/A   Partly Cloudy
5:53 AM 42.1 °F - 37.9 °F 85% 30.08 in 10.0 mi Calm Calm - N/A   Partly Cloudy
6:53 AM 41.0 °F 35.8 °F 37.9 °F 89% 30.09 in 10.0 mi SSE 8.1 mph - N/A   Partly Cloudy
7:53 AM 43.0 °F 38.8 °F 39.0 °F 86% 30.10 in 10.0 mi SSE 6.9 mph - N/A   Partly Cloudy
8:53 AM 46.9 °F - 39.9 °F 77% 30.10 in 10.0 mi South 6.9 mph - N/A   Scattered Clouds
9:53 AM 51.1 °F - 39.9 °F 66% 30.11 in 10.0 mi Variable 6.9 mph - N/A   Scattered Clouds
10:53 AM 53.1 °F - 37.9 °F 57% 30.11 in 10.0 mi SSW 9.2 mph - N/A   Scattered Clouds
11:53 AM 54.0 °F - 37.9 °F 55% 30.09 in 10.0 mi SW 6.9 mph - N/A   Scattered Clouds
12:53 PM 55.0 °F - 39.9 °F 57% 30.08 in 10.0 mi Variable 4.6 mph - N/A   Mostly Cloudy
1:53 PM 57.9 °F - 37.0 °F 46% 30.06 in 10.0 mi Calm Calm - N/A   Mostly Cloudy
2:53 PM 61.0 °F - 37.9 °F 42% 30.07 in 10.0 mi WSW 8.1 mph - N/A   Mostly Cloudy
3:53 PM 61.0 °F - 36.0 °F 39% 30.06 in 10.0 mi SSW 6.9 mph 19.6 mph N/A   Mostly Cloudy
4:53 PM 61.0 °F - 33.1 °F 35% 30.04 in 10.0 mi SW 13.8 mph - N/A   Mostly Cloudy
5:53 PM 61.0 °F - 34.0 °F 36% 30.03 in 10.0 mi SW 9.2 mph - N/A   Mostly Cloudy
6:53 PM 57.9 °F - 35.1 °F 42% 30.04 in 10.0 mi SSW 5.8 mph - N/A   Overcast
7:53 PM 57.0 °F - 35.1 °F 44% 30.02 in 10.0 mi South 4.6 mph - N/A   Overcast
8:53 PM 55.0 °F - 35.1 °F 47% 30.02 in 10.0 mi SSW 8.1 mph - N/A   Overcast
9:53 PM 52.0 °F - 35.1 °F 53% 30.02 in 10.0 mi SSE 4.6 mph - N/A   Scattered Clouds
10:53 PM 51.1 °F - 36.0 °F 56% 30.01 in 10.0 mi SSE 5.8 mph - N/A   Scattered Clouds
11:53 PM 46.9 °F - 36.0 °F 66% 30.01 in 10.0 mi Calm Calm - N/A   Scattered Clouds